Location: Melbourne
(37.8666°S, 145.1333°E)
Time: 01:30:43
(UTC+11:00)

Amateur Radio Satellites - All Passes

Search period start: 06 December 2016 01:00
Search period end: 07 December 2016 01:00
Location: Melbourne, 37.8666°S, 145.1333°E

Satellite Date Start Highest point End Downlink Frequencies (MHz)
Time Altitude Azimuth
Cosmos 2499 06 Dec 01:03:41 01:11:06 70° 98° (E) 01:19:00 435.465 / 435.565
CUBEBUG 1 06 Dec 01:25:27 01:29:48 64° 255° (WSW) 01:34:05 437.445
Gurwin Techsat 1B 06 Dec 01:30:17 01:34:28 24° 114° (ESE) 01:38:40 435.225
BUGSAT 1 06 Dec 01:30:47 01:34:32 35° 278° (W) 01:38:19 437.445
VELOX 1 06 Dec 01:33:30 01:37:59 81° 256° (WSW) 01:42:24 145.980
50 SAT 06 Dec 01:36:30 01:40:08 75° 256° (WSW) 01:43:42 437.505
Oscar 19 06 Dec 01:41:03 01:46:11 58° 107° (ESE) 01:51:21 437.125/150
PCSat 06 Dec 01:42:24 01:47:23 36° 235° (SW) 01:52:25 145.827
JAS-2 06 Dec 01:49:28 01:52:22 13° 265° (W) 01:55:26 435.910
DX 1 06 Dec 01:50:10 01:54:35 81° 77° (ENE) 01:58:56 434.975-435.025
UKube-1 06 Dec 01:59:15 02:03:38 76° 77° (ENE) 02:07:58 .
RS-15 06 Dec 02:01:29 02:07:16 15° 175° (S) 02:13:01 29.354- 29.394
TISAT 1 06 Dec 02:04:27 02:07:46 22° 85° (E) 02:11:04 437.305
JUGNU 06 Dec 02:05:59 02:08:25 13° 3° (N) 02:10:52 437.505
ITAMSAT 1 06 Dec 02:10:42 02:12:51 13° 120° (ESE) 02:15:01 435.822/435.867
AO-85 06 Dec 02:13:48 02:15:48 12° 285° (WNW) 02:17:49 145.980
SPROUT 06 Dec 02:14:15 02:18:19 40° 252° (WSW) 02:22:21 437.525
BEESAT 3 06 Dec 02:17:07 02:19:16 14° 134° (SE) 02:21:24 437.485
ESTCUBE 1 06 Dec 02:25:25 02:26:14 10° 242° (WSW) 02:27:04 437.505/2401.250
AISAT 06 Dec 02:34:05 02:37:01 18° 246° (WSW) 02:39:57 437.250
GONETS M04 06 Dec 02:42:36 02:50:08 32° 264° (W) 02:57:36
BEESAT 2 06 Dec 02:44:23 02:46:16 13° 135° (SE) 02:48:10 435.950
Cosmos 2499 06 Dec 02:58:32 03:03:29 19° 263° (W) 03:08:37 435.465 / 435.565
AO-7 06 Dec 02:59:07 03:06:35 38° 119° (ESE) 03:14:04 29.400- 29.500
SWISSCUBE 06 Dec 03:06:20 03:10:15 24° 85° (E) 03:14:06 437.505
Gurwin Techsat 1B 06 Dec 03:09:06 03:14:07 41° 278° (W) 03:19:12 435.225
BEESAT 06 Dec 03:10:31 03:14:23 23° 85° (E) 03:18:12 436.000
AUBIESAT-1 06 Dec 03:19:22 03:21:32 16° 80° (E) 03:23:44 437.475
Oscar 19 06 Dec 03:22:46 03:25:50 16° 272° (W) 03:28:55 437.125/150
M-CUBED/EXP-1 PRIME 06 Dec 03:30:15 03:33:11 27° 77° (ENE) 03:36:11 437.505
ITUPSAT 1 06 Dec 03:36:57 03:41:37 43° 81° (E) 03:46:12 437.325
TISAT 1 06 Dec 03:39:44 03:43:22 28° 250° (WSW) 03:46:59 437.305
SRMSAT 06 Dec 03:43:29 03:45:32 12° 8° (N) 03:47:34 437.500
ITAMSAT 1 06 Dec 03:46:23 03:51:35 80° 283° (WNW) 03:56:52 435.822/435.867
BEESAT 3 06 Dec 03:53:24 03:57:10 50° 296° (WNW) 04:00:54 437.485
JUGNU 06 Dec 03:54:48 03:56:33 11° 352° (N) 03:58:18 437.505
RS-15 06 Dec 04:15:10 04:24:41 32° 140° (SE) 04:34:15 29.354- 29.394
BEESAT 2 06 Dec 04:20:33 04:24:25 59° 297° (WNW) 04:28:15 435.950
BRITE-PL 06 Dec 04:22:02 04:24:46 14° 116° (ESE) 04:27:27 437.365/2234.400
MOZHAYETS 4 06 Dec 04:24:01 04:28:16 33° 83° (E) 04:32:28
SWISSCUBE 06 Dec 04:43:39 04:48:02 34° 250° (WSW) 04:52:22 437.505
BEESAT 06 Dec 04:47:48 04:52:11 34° 250° (WSW) 04:56:31 436.000
AO-7 06 Dec 04:51:05 04:59:05 48° 281° (WNW) 05:07:09 29.400- 29.500
AUBIESAT-1 06 Dec 04:53:07 04:55:58 25° 247° (WSW) 04:58:53 437.475
KKS-1 06 Dec 05:00:33 05:04:35 32° 83° (E) 05:08:35 437.445
AIST 2 06 Dec 05:04:31 05:05:45 11° 137° (SE) 05:06:57 435.215
M-CUBED/EXP-1 PRIME 06 Dec 05:05:36 05:07:30 14° 244° (WSW) 05:09:24 437.505
STARS 06 Dec 05:09:36 05:12:39 18° 86° (E) 05:15:41 437.465
HORYU 2 06 Dec 05:11:23 05:15:09 28° 111° (ESE) 05:18:58 437.375
ITUPSAT 1 06 Dec 05:15:37 05:19:05 20° 245° (WSW) 05:22:31 437.325
CUTE-I 06 Dec 05:18:21 05:20:04 11° 121° (ESE) 05:21:46 437.470
O/OREOS (USA 219) 06 Dec 05:26:30 05:31:01 79° 248° (WSW) 05:35:38 437.305
SRMSAT 06 Dec 05:31:09 05:33:50 13° 357° (N) 05:36:31 437.500
GOMX 1 06 Dec 05:38:16 05:42:38 29° 110° (ESE) 05:46:48 467.674
NOAA 15 06 Dec 05:41:13 05:45:14 22° 115° (ESE) 05:49:16 137.62
ISS 06 Dec 05:41:33 05:44:51 80° 222° (SW) 05:48:12 145.825
Cubesat XI-IV 06 Dec 05:41:43 05:45:26 20° 116° (ESE) 05:49:12 437.490
DOVE 4 06 Dec 05:54:20 05:57:03 16° 113° (ESE) 05:59:43 437.250
BRITE-PL 06 Dec 05:56:58 06:02:37 78° 282° (WNW) 06:08:02 437.365/2234.400
CUBESAT XI-V 06 Dec 06:01:19 06:05:56 50° 81° (E) 06:10:26 437.345
MOZHAYETS 4 06 Dec 06:01:31 06:05:13 23° 248° (WSW) 06:08:54
HO-68 06 Dec 06:14:36 06:16:35 11° 128° (SE) 06:18:34 435.675
LilacSat-2 06 Dec 06:26:37 06:30:16 45° 106° (ESE) 06:34:00 437.200
RS-15 06 Dec 06:27:13 06:38:07 78° 296° (WNW) 06:49:21 29.354- 29.394
KKS-1 06 Dec 06:37:29 06:40:56 22° 247° (WSW) 06:44:22 437.445
AIST 2 06 Dec 06:40:39 06:44:46 81° 299° (WNW) 06:48:48 435.215
STARS 06 Dec 06:45:00 06:49:06 37° 251° (WSW) 06:53:10 437.465
Cosmos 2491 06 Dec 06:45:07 06:53:33 44° 105° (ESE) 07:01:52 435.465 / 435.565
HORYU 2 06 Dec 06:48:00 06:51:38 24° 276° (W) 06:55:19 437.375
CUTE-I 06 Dec 06:53:55 06:59:17 89° 270° (W) 07:04:42 437.470
NOAA 18 06 Dec 06:56:47 07:02:13 64° 107° (ESE) 07:07:40 137.9125
YUBILEINY 06 Dec 07:11:47 07:18:53 28° 97° (E) 07:25:58 435.215
GOMX 1 06 Dec 07:16:06 07:20:36 30° 277° (W) 07:24:55 467.674
CINEMA 3 06 Dec 07:16:48 07:20:20 25° 110° (ESE) 07:23:50 145.822/145.860
NOAA 15 06 Dec 07:19:32 07:24:38 46° 279° (W) 07:29:49 137.62
ISS 06 Dec 07:19:50 07:21:49 15° 202° (SSW) 07:23:48 145.825
Cubesat XI-IV 06 Dec 07:19:53 07:25:04 52° 280° (W) 07:30:20 437.490
DOVE 4 06 Dec 07:29:48 07:34:23 48° 280° (W) 07:38:47 437.250
CUTE 1.7 + AOD 2 06 Dec 07:36:18 07:39:54 26° 110° (ESE) 07:43:32 437.475
CUBESAT XI-V 06 Dec 07:40:02 07:42:50 16° 245° (WSW) 07:45:35 437.345
CUBEBUG 2 06 Dec 07:41:45 07:43:02 11° 116° (ESE) 07:44:19 437.445
STRAND 1 06 Dec 07:43:56 07:47:50 21° 86° (E) 07:51:41 437.568
CANX-2 06 Dec 07:53:30 07:57:39 48° 107° (ESE) 08:01:51 2200.000
HO-68 06 Dec 07:55:47 08:02:53 64° 110° (ESE) 08:10:02 435.675
LilacSat-2 06 Dec 08:03:55 08:04:49 11° 271° (W) 08:05:42 437.200
AAUSAT CUBESAT 2 06 Dec 08:03:59 08:06:56 19° 113° (ESE) 08:09:54 437.432
SEEDS 06 Dec 08:20:19 08:24:30 56° 105° (ESE) 08:28:46 437.485
CUSAT 1 06 Dec 08:21:44 08:26:46 20° 117° (ESE) 08:31:05 437.405
UWE-3 06 Dec 08:23:31 08:26:42 21° 112° (ESE) 08:29:58 435.000/436.395/437.385
COMPASS 1 06 Dec 08:32:08 08:36:14 50° 106° (ESE) 08:40:25 437.405
AIST 1 06 Dec 08:39:22 08:43:30 42° 88° (E) 08:47:39
NOAA 18 06 Dec 08:40:10 08:43:16 15° 272° (W) 08:46:24 137.9125
Cosmos 2491 06 Dec 08:42:13 08:50:11 39° 266° (W) 08:58:07 435.465 / 435.565
RS-15 06 Dec 08:43:06 08:48:37 15° 278° (W) 08:54:14 29.354- 29.394
Cosmos 2504 06 Dec 08:44:41 08:52:06 51° 89° (E) 08:59:09 435.465 / 435.565
PCSat 06 Dec 08:49:13 08:53:00 19° 132° (SE) 08:56:45 145.827
CINEMA 3 06 Dec 08:53:58 08:57:24 23° 275° (W) 09:00:50 145.822/145.860
DANDE 06 Dec 08:58:33 09:04:21 20° 118° (ESE) 09:09:39 436.750
SO-50 06 Dec 09:00:49 09:05:09 50° 64° (ENE) 09:09:37 436.795
ZACube-1 06 Dec 09:05:17 09:09:11 38° 108° (ESE) 09:13:10 437.345
YUBILEINY 06 Dec 09:06:21 09:15:01 59° 259° (W) 09:23:46 435.215
DELFI C3 06 Dec 09:09:26 09:11:19 13° 114° (ESE) 09:13:13 145.870
CUTE 1.7 + AOD 2 06 Dec 09:12:08 09:15:38 24° 275° (W) 09:19:12 437.475
FUNcube-1 06 Dec 09:13:16 09:17:14 43° 107° (ESE) 09:21:19 145.935
CUBEBUG 2 06 Dec 09:15:00 09:19:06 57° 280° (W) 09:23:17 437.445
STRAND 1 06 Dec 09:22:13 09:27:09 43° 251° (WSW) 09:32:01 437.568
CANX-2 06 Dec 09:31:41 09:33:44 13° 271° (W) 09:35:50 2200.000
AAUSAT CUBESAT 2 06 Dec 09:38:17 09:42:07 34° 277° (W) 09:46:01 437.432
Oscar 11 06 Dec 09:44:32 09:48:53 81° 281° (WNW) 09:53:19 145.826/435.025
HO-68 06 Dec 09:45:40 09:51:01 22° 273° (W) 09:56:27 435.675
SEEDS 06 Dec 09:59:20 10:00:32 11° 270° (W) 10:01:44 437.485
UWE-3 06 Dec 09:59:24 10:03:00 28° 276° (W) 10:06:40 435.000/436.395/437.385
CUSAT 1 06 Dec 10:02:35 10:09:33 62° 273° (W) 10:14:57 437.405
COMPASS 1 06 Dec 10:10:21 10:12:04 12° 271° (W) 10:13:48 437.405
AIST 1 06 Dec 10:18:47 10:21:17 15° 252° (WSW) 10:23:47
PCSat 06 Dec 10:31:29 10:36:53 66° 294° (WNW) 10:42:15 145.827
ISS 06 Dec 10:35:42 10:37:18 13° 161° (SSE) 10:38:54 145.825
HUMSAT D 06 Dec 10:38:07 10:42:16 75° 103° (ESE) 10:46:33 437.325/437.525
Cosmos 2504 06 Dec 10:39:21 10:45:41 27° 252° (WSW) 10:51:49 435.465 / 435.565
DANDE 06 Dec 10:39:49 10:48:15 84° 277° (W) 10:55:20 436.750
DELFI C3 06 Dec 10:41:46 10:45:40 47° 279° (W) 10:49:39 145.870
SO-50 06 Dec 10:42:40 10:45:55 19° 226° (SW) 10:49:14 436.795
ZACube-1 06 Dec 10:43:07 10:45:37 15° 272° (W) 10:48:12 437.345
PRISM 06 Dec 10:46:05 10:50:13 68° 255° (WSW) 10:54:17 437.425
FUNcube-1 06 Dec 10:51:36 10:53:43 14° 271° (W) 10:55:52 145.935
UNISAT 6 06 Dec 11:07:56 11:12:23 43° 81° (E) 11:16:50 437.425
JAS-2 06 Dec 11:13:07 11:18:03 18° 93° (E) 11:22:48 435.910
SPROUT 06 Dec 11:33:46 11:34:10 10° 117° (ESE) 11:34:35 437.525
TIGRISAT 06 Dec 11:37:57 11:42:37 87° 75° (ENE) 11:47:18 435.000
ANTELSAT 06 Dec 11:39:17 11:43:57 86° 258° (WSW) 11:48:39 437.575/2403.000
ESTCUBE 1 06 Dec 11:42:51 11:47:19 54° 106° (ESE) 11:51:49 437.505/2401.250
AISAT 06 Dec 11:52:16 11:56:07 29° 110° (ESE) 12:00:00 437.250
NANOSAT C BR1 06 Dec 11:54:24 11:56:09 12° 89° (E) 11:57:53 145.865
QB50P2 06 Dec 11:58:52 12:01:37 16° 87° (E) 12:04:21 145.880/145.840
POLYITAN 1 06 Dec 11:59:30 12:02:09 16° 87° (E) 12:04:46 437.675
50 SAT 06 Dec 12:09:53 12:13:08 31° 108° (ESE) 12:16:25 437.505
ISS 06 Dec 12:11:05 12:14:23 59° 142° (SE) 12:17:38 145.825
QB50P1 06 Dec 12:12:08 12:15:29 22° 85° (E) 12:18:48 145.935-145.965
DUCHIFAT 1 06 Dec 12:15:37 12:18:48 20° 86° (E) 12:21:58 145.980
CUBEBUG 1 06 Dec 12:19:01 12:23:26 83° 102° (ESE) 12:27:53 437.445
DANDE 06 Dec 12:25:15 12:29:29 15° 257° (WSW) 12:33:27 436.750
VELOX 1 06 Dec 12:28:30 12:32:57 71° 105° (ESE) 12:37:26 145.980
POPSAT HIP 1 06 Dec 12:33:04 12:37:05 37° 82° (E) 12:41:03 437.405
DX 1 06 Dec 12:43:31 12:47:49 54° 107° (ESE) 12:52:09 434.975-435.025
UNISAT 6 06 Dec 12:45:37 12:48:44 18° 246° (WSW) 12:51:51 437.425
PHONESAT 2.4 06 Dec 12:50:53 12:52:51 18° 31° (NNE) 12:54:50 2401.200-2431.200
UKube-1 06 Dec 12:51:38 12:55:51 49° 107° (ESE) 13:00:05 .
TISAT 1 06 Dec 12:55:28 12:57:36 14° 115° (ESE) 12:59:44 437.305
JAS-2 06 Dec 12:55:53 13:03:53 86° 254° (WSW) 13:11:25 435.910
SPROUT 06 Dec 13:05:13 13:09:28 69° 282° (WNW) 13:13:47 437.525
BUGSAT 1 06 Dec 13:13:56 13:17:44 34° 82° (E) 13:21:31 437.445
ESTCUBE 1 06 Dec 13:22:16 13:24:25 13° 271° (W) 13:26:34 437.505/2401.250
NANOSAT C BR1 06 Dec 13:27:57 13:32:08 51° 254° (WSW) 13:36:16 145.865
AISAT 06 Dec 13:28:58 13:32:32 23° 275° (W) 13:36:08 437.250
QB50P2 06 Dec 13:33:31 13:37:32 38° 252° (WSW) 13:41:31 145.880/145.840
POLYITAN 1 06 Dec 13:34:01 13:38:04 40° 252° (WSW) 13:42:06 437.675
Cosmos 2499 06 Dec 13:38:22 13:45:38 60° 88° (E) 13:52:38 435.465 / 435.565
GONETS M04 06 Dec 13:43:17 13:51:55 63° 88° (E) 14:00:41
50 SAT 06 Dec 13:44:29 13:46:30 14° 273° (W) 13:48:32 437.505
QB50P1 06 Dec 13:47:30 13:51:13 29° 250° (WSW) 13:54:55 145.935-145.965
ISS 06 Dec 13:49:03 13:50:29 12° 308° (NW) 13:51:56 145.825
DUCHIFAT 1 06 Dec 13:50:43 13:54:29 31° 251° (WSW) 13:58:15 145.980
Oscar 19 06 Dec 13:55:12 13:59:18 23° 85° (E) 14:03:21 437.125/150
O/OREOS (USA 219) 06 Dec 14:00:27 14:03:09 15° 124° (SE) 14:05:51 437.305
AUBIESAT-1 06 Dec 14:03:39 14:06:10 17° 115° (ESE) 14:08:38 437.475
POPSAT HIP 1 06 Dec 14:09:39 14:12:32 18° 247° (WSW) 14:15:25 437.405
SWISSCUBE 06 Dec 14:11:12 14:14:57 23° 113° (ESE) 14:18:44 437.505
M-CUBED/EXP-1 PRIME 06 Dec 14:14:42 14:18:08 30° 112° (ESE) 14:21:22 437.505
BEESAT 06 Dec 14:15:20 14:19:03 23° 113° (ESE) 14:22:47 436.000
DX 1 06 Dec 14:22:33 14:24:18 12° 272° (W) 14:26:03 434.975-435.025
PHONESAT 2.4 06 Dec 14:25:07 14:27:51 86° 204° (SSW) 14:30:38 2401.200-2431.200
TISAT 1 06 Dec 14:28:44 14:32:47 47° 280° (W) 14:36:53 437.305
UKube-1 06 Dec 14:30:03 14:32:07 13° 272° (W) 14:34:12 .
ITUPSAT 1 06 Dec 14:41:47 14:46:16 41° 109° (ESE) 14:50:50 437.325
JAS-2 06 Dec 14:42:46 14:47:41 18° 237° (WSW) 14:52:30 435.910
AO-85 06 Dec 14:43:41 14:47:39 40° 66° (ENE) 14:51:59 145.980
BUGSAT 1 06 Dec 14:50:01 14:52:49 18° 247° (WSW) 14:55:38 437.445
MOZHAYETS 4 06 Dec 15:24:15 15:28:04 26° 111° (ESE) 15:31:56
Gurwin Techsat 1B 06 Dec 15:26:42 15:32:08 90° 255° (WSW) 15:37:29 435.225
Cosmos 2499 06 Dec 15:33:42 15:39:09 22° 250° (WSW) 15:44:32 435.465 / 435.565
Oscar 19 06 Dec 15:33:55 15:38:42 38° 250° (WSW) 15:43:26 437.125/150
AUBIESAT-1 06 Dec 15:37:02 15:40:26 29° 283° (WNW) 15:43:41 437.475
O/OREOS (USA 219) 06 Dec 15:38:21 15:42:56 56° 287° (WNW) 15:47:27 437.305
GONETS M04 06 Dec 15:42:09 15:49:19 27° 249° (WSW) 15:56:35
SWISSCUBE 06 Dec 15:48:07 15:52:29 35° 278° (W) 15:56:56 437.505
M-CUBED/EXP-1 PRIME 06 Dec 15:50:00 15:52:37 17° 281° (W) 15:55:08 437.505
BEESAT 06 Dec 15:52:12 15:56:34 36° 278° (W) 16:01:02 436.000
KKS-1 06 Dec 15:57:04 16:00:40 24° 112° (ESE) 16:04:17 437.445
PHONESAT 2.4 06 Dec 16:00:35 16:03:16 44° 180° (S) 16:05:58 2401.200-2431.200
ITAMSAT 1 06 Dec 16:01:12 16:06:13 42° 81° (E) 16:11:11 435.822/435.867
STARS 06 Dec 16:05:27 16:07:40 14° 116° (ESE) 16:09:53 437.465
ITUPSAT 1 06 Dec 16:20:49 16:24:14 19° 274° (W) 16:27:42 437.325
AO-85 06 Dec 16:24:51 16:28:18 22° 226° (SW) 16:31:59 145.980
AO-7 06 Dec 16:54:13 17:02:33 67° 75° (ENE) 17:10:47 29.400- 29.500
MOZHAYETS 4 06 Dec 17:01:06 17:05:06 28° 276° (W) 17:09:09
CUBESAT XI-V 06 Dec 17:02:31 17:06:57 40° 108° (ESE) 17:11:25 437.345
Gurwin Techsat 1B 06 Dec 17:09:38 17:11:14 11° 239° (WSW) 17:12:51 435.225
YUBILEINY 06 Dec 17:26:26 17:28:44 11° 121° (ESE) 17:31:02 435.215
KKS-1 06 Dec 17:33:13 17:37:04 28° 277° (W) 17:40:58 437.445
SO-50 06 Dec 17:33:41 17:37:57 31° 129° (SE) 17:42:13 436.795
PHONESAT 2.4 06 Dec 17:35:54 17:38:40 87° 176° (S) 17:41:27 2401.200-2431.200
STARS 06 Dec 17:39:14 17:43:32 52° 280° (W) 17:47:52 437.465
ITAMSAT 1 06 Dec 17:41:18 17:45:23 23° 245° (WSW) 17:49:25 435.822/435.867
BEESAT 3 06 Dec 17:41:39 17:45:16 37° 65° (ENE) 17:48:55 437.485
BRITE-PL 06 Dec 18:04:43 18:08:47 35° 84° (E) 18:12:38 437.365/2234.400
BEESAT 2 06 Dec 18:10:20 18:13:57 34° 65° (ENE) 18:17:34 435.950
HORYU 2 06 Dec 18:39:31 18:44:04 71° 78° (ENE) 18:48:34 437.375
Cosmos 2504 06 Dec 18:40:36 18:44:18 14° 114° (ESE) 18:48:02 435.465 / 435.565
RS-15 06 Dec 18:41:04 18:47:54 18° 80° (E) 18:54:32 29.354- 29.394
CUBESAT XI-V 06 Dec 18:41:06 18:44:27 19° 273° (W) 18:47:50 437.345
AO-7 06 Dec 18:47:59 18:54:39 28° 237° (WSW) 19:01:17 29.400- 29.500
STRAND 1 06 Dec 18:58:02 19:02:12 26° 113° (ESE) 19:06:25 437.568
PHONESAT 2.4 06 Dec 19:11:43 19:13:41 18° 329° (NNW) 19:15:39 2401.200-2431.200
CUTE-I 06 Dec 19:12:58 19:18:07 43° 81° (E) 19:23:14 437.470
SO-50 06 Dec 19:14:09 19:18:22 31° 293° (WNW) 19:22:36 436.795
YUBILEINY 06 Dec 19:18:41 19:27:26 66° 100° (E) 19:36:04 435.215
GOMX 1 06 Dec 19:19:09 19:23:25 84° 257° (WSW) 19:27:36 467.674
BEESAT 3 06 Dec 19:20:14 19:23:01 18° 229° (SW) 19:25:48 437.485
NOAA 18 06 Dec 19:21:01 19:25:54 31° 83° (E) 19:30:44 137.9125
HO-68 06 Dec 19:29:22 19:31:26 11° 92° (E) 19:33:29 435.675
DOVE 4 06 Dec 19:30:04 19:34:10 47° 80° (E) 19:38:20 437.250
LilacSat-2 06 Dec 19:35:31 19:39:30 88° 257° (WSW) 19:43:25 437.200
NOAA 15 06 Dec 19:36:15 19:41:38 79° 77° (ENE) 19:46:56 137.62
Cubesat XI-IV 06 Dec 19:38:41 19:44:08 74° 78° (ENE) 19:49:32 437.490
Cosmos 2491 06 Dec 19:43:39 19:52:03 53° 90° (E) 20:00:34 435.465 / 435.565
BRITE-PL 06 Dec 19:44:00 19:46:58 18° 246° (WSW) 19:49:49 437.365/2234.400
BEESAT 2 06 Dec 19:48:51 19:51:49 20° 229° (SW) 19:54:48 435.950
SEEDS 06 Dec 20:08:35 20:09:40 11° 90° (E) 20:10:44 437.485
HORYU 2 06 Dec 20:18:41 20:19:59 11° 242° (WSW) 20:21:16 437.375
AIST 1 06 Dec 20:25:20 20:29:38 69° 274° (W) 20:33:53
Cosmos 2504 06 Dec 20:31:13 20:38:37 89° 92° (E) 20:46:24 435.465 / 435.565
AIST 2 06 Dec 20:36:26 20:40:09 31° 66° (ENE) 20:43:51 435.215
STRAND 1 06 Dec 20:36:29 20:41:10 36° 278° (W) 20:45:55 437.568
RS-15 06 Dec 20:47:08 20:58:37 85° 63° (ENE) 21:09:40 29.354- 29.394
CINEMA 3 06 Dec 20:48:37 20:53:05 86° 80° (E) 20:57:42 145.822/145.860
CUTE-I 06 Dec 20:53:38 20:57:52 24° 245° (WSW) 21:02:04 437.470
CUTE 1.7 + AOD 2 06 Dec 20:57:49 21:02:10 66° 79° (ENE) 21:06:26 437.475
NOAA 18 06 Dec 21:01:36 21:06:29 33° 247° (WSW) 21:11:21 137.9125
FUNcube-1 06 Dec 21:05:27 21:06:25 11° 90° (E) 21:07:24 145.935
CUBEBUG 2 06 Dec 21:07:10 21:11:20 33° 83° (E) 21:15:34 437.445
DOVE 4 06 Dec 21:09:23 21:11:28 14° 246° (WSW) 21:13:35 437.250
HO-68 06 Dec 21:12:53 21:20:08 79° 75° (ENE) 21:27:18 435.675
CANX-2 06 Dec 21:15:50 21:20:11 65° 256° (WSW) 21:24:26 2200.000
YUBILEINY 06 Dec 21:16:51 21:23:24 24° 261° (W) 21:29:56 435.215
NOAA 15 06 Dec 21:18:17 21:20:40 13° 240° (WSW) 21:23:02 137.62
CUSAT 1 06 Dec 21:18:33 21:24:00 25° 97° (E) 21:30:01 437.405
Cubesat XI-IV 06 Dec 21:20:45 21:23:31 14° 241° (WSW) 21:26:17 437.490
AAUSAT CUBESAT 2 06 Dec 21:21:56 21:25:57 40° 82° (E) 21:29:52 437.432
PRISM 06 Dec 21:33:02 21:37:12 65° 105° (ESE) 21:41:24 437.425
Oscar 11 06 Dec 21:34:17 21:37:40 21° 86° (E) 21:41:02 145.826/435.025
SEEDS 06 Dec 21:41:28 21:45:42 57° 254° (WSW) 21:49:52 437.485
Cosmos 2491 06 Dec 21:41:38 21:49:11 32° 251° (WSW) 21:56:54 435.465 / 435.565
UWE-3 06 Dec 21:49:30 21:54:05 63° 79° (E) 21:58:42 435.000/436.395/437.385
COMPASS 1 06 Dec 21:51:58 21:56:12 65° 256° (WSW) 22:00:22 437.405
DANDE 06 Dec 22:04:13 22:08:04 17° 102° (ESE) 22:12:28 436.750
UNISAT 6 06 Dec 22:05:21 22:09:04 29° 110° (ESE) 22:12:51 437.425
AIST 2 06 Dec 22:15:15 22:18:38 23° 230° (SW) 22:22:00 435.215
DELFI C3 06 Dec 22:21:16 22:24:33 24° 85° (E) 22:27:48 145.870
HUMSAT D 06 Dec 22:24:40 22:27:05 14° 88° (E) 22:29:29 437.325/437.525
Cosmos 2504 06 Dec 22:27:37 22:30:57 14° 260° (W) 22:34:20 435.465 / 435.565
ZACube-1 06 Dec 22:30:44 22:35:19 75° 257° (WSW) 22:39:55 437.345
TIGRISAT 06 Dec 22:34:46 22:38:58 59° 105° (ESE) 22:43:16 435.000
ANTELSAT 06 Dec 22:36:11 22:40:26 65° 105° (ESE) 22:44:47 437.575/2403.000
CUTE 1.7 + AOD 2 06 Dec 22:36:20 22:37:23 11° 244° (WSW) 22:38:25 437.475
FUNcube-1 06 Dec 22:38:28 22:43:01 67° 255° (WSW) 22:47:35 145.935
CUBEBUG 2 06 Dec 22:44:11 22:47:45 23° 249° (WSW) 22:51:21 437.445
QB50P2 06 Dec 22:51:57 22:52:40 10° 117° (ESE) 22:53:22 145.880/145.840
CUSAT 1 06 Dec 22:58:18 23:05:09 63° 258° (WSW) 23:13:08 437.405
AAUSAT CUBESAT 2 06 Dec 22:58:30 23:01:02 16° 246° (WSW) 23:03:33 437.432
HO-68 06 Dec 23:02:12 23:07:01 20° 238° (WSW) 23:11:49 435.675
RS-15 06 Dec 23:02:49 23:12:19 30° 218° (SW) 23:21:39 29.354- 29.394
QB50P1 06 Dec 23:03:59 23:06:06 14° 115° (ESE) 23:08:15 145.935-145.965
JAS-2 06 Dec 23:05:46 23:11:36 37° 115° (ESE) 23:18:07 435.910
DUCHIFAT 1 06 Dec 23:07:08 23:08:54 12° 116° (ESE) 23:10:40 145.980
Oscar 11 06 Dec 23:09:55 23:13:49 31° 251° (WSW) 23:17:39 145.826/435.025
AO-85 06 Dec 23:16:06 23:20:42 29° 130° (SE) 23:25:21 145.980
POPSAT HIP 1 06 Dec 23:24:10 23:27:27 22° 112° (ESE) 23:30:46 437.405
UWE-3 06 Dec 23:28:00 23:29:59 13° 244° (WSW) 23:32:00 435.000/436.395/437.385
PCSat 06 Dec 23:29:32 23:33:27 21° 74° (ENE) 23:37:24 145.827
Cosmos 2499 06 Dec 23:31:57 23:36:40 17° 112° (ESE) 23:41:31 435.465 / 435.565
ESTCUBE 1 06 Dec 23:38:58 23:41:08 13° 89° (E) 23:43:17 437.505/2401.250
UNISAT 6 06 Dec 23:42:28 23:45:46 22° 274° (W) 23:49:09 437.425
DANDE 06 Dec 23:43:47 23:49:33 71° 259° (WSW) 23:57:07 436.750
DELFI C3 06 Dec 23:56:02 23:59:15 23° 249° (WSW) 00:02:25 145.870
GONETS M04 06 Dec 23:56:31 00:03:56 28° 110° (ESE) 00:11:14
HUMSAT D 06 Dec 23:58:42 00:02:54 45° 253° (WSW) 00:07:01 437.325/437.525
BUGSAT 1 07 Dec 00:02:35 00:05:28 19° 112° (ESE) 00:08:22 437.445
CUBEBUG 1 07 Dec 00:10:31 00:13:24 17° 87° (E) 00:16:15 437.445
TIGRISAT 07 Dec 00:15:17 00:16:03 10° 270° (W) 00:16:49 435.000
NANOSAT C BR1 07 Dec 00:17:40 00:21:53 90° 120° (ESE) 00:26:10 145.865
VELOX 1 07 Dec 00:21:46 00:24:21 15° 87° (E) 00:26:55 145.980
QB50P2 07 Dec 00:23:39 00:27:51 66° 281° (W) 00:32:07 145.880/145.840
POLYITAN 1 07 Dec 00:24:10 00:28:22 70° 281° (WNW) 00:32:38 437.675
DX 1 07 Dec 00:36:19 00:37:12 10° 89° (E) 00:38:05 434.975-435.025
QB50P1 07 Dec 00:37:21 00:41:26 48° 280° (W) 00:45:34 145.935-145.965
DUCHIFAT 1 07 Dec 00:39:59 00:44:05 53° 280° (W) 00:48:14 145.980
CUSAT 1 07 Dec 00:46:13 00:48:51 12° 237° (WSW) 00:51:35 437.405
SPROUT 07 Dec 00:53:21 00:56:47 23° 85° (E) 01:00:12 437.525
